CW6020 Teulada ES current weather conditions

sailwx.info

Air temperature 24.4° C
Dewpoint 22.7° C

Last reported at 2014-Sep-02 20:51 UTC.
Time now 2014-Sep-02 21:15 UTC

Location: N 38°44' E 000°06'.
View on Google Maps.

See reports from other nearby stations

  
Tides and Currents Weather Stations Pressure Air Temp Water Temp Dewpoint Dewpoint Depression Visibility Wind Speed Wind Dir Waves Ship Positions
date/time (UTC)wind fromknots sea level pressurealtimeterstation pressurevisibilityair tempwater tempwave heightnotes
2014-Sep-02 20:51 24.4
2014-Sep-02 20:41 090 24.4
2014-Sep-02 20:11 180 25.0
2014-Sep-02 19:41 195 25.0
2014-Sep-02 19:31 180 1 gusting 3 25.0
2014-Sep-02 19:21 180 1 gusting 2 25.6
2014-Sep-02 19:11 180 1 gusting 3 25.6
2014-Sep-02 18:41 165 3 gusting 5 25.6
2014-Sep-02 18:31 165 3 gusting 5 26.1
2014-Sep-02 18:21 180 1 gusting 3 26.1
2014-Sep-02 18:01 180 5 gusting 7 26.7
2014-Sep-02 17:51 165 2 gusting 5 26.7
2014-Sep-02 17:41 180 4 gusting 6 27.2
2014-Sep-02 17:01 187 6 gusting 9 28.3
2014-Sep-02 16:51 210 6 gusting 13 28.3
2014-Sep-02 16:11 180 9 gusting 12 29.4
2014-Sep-02 15:51 165 13 gusting 15 29.4
2014-Sep-02 15:31 180 9 gusting 14 30.6
2014-Sep-02 15:21 180 6 gusting 9 30.6
2014-Sep-02 14:31 172 6 gusting 9 31.7
2014-Sep-02 14:21 142 6 gusting 7 31.7
2014-Sep-02 13:51 165 6 gusting 9 31.7
2014-Sep-02 13:41 127 6 gusting 9 31.7
2014-Sep-02 13:11 180 5 gusting 6 31.7
2014-Sep-02 12:51 172 6 gusting 7 31.7
2014-Sep-02 12:31 165 4 gusting 8 31.7
2014-Sep-02 12:11 165 5 gusting 8 32.2
2014-Sep-02 12:01 165 6 gusting 8 32.2
2014-Sep-02 11:41 165 6 gusting 9 31.7
2014-Sep-02 11:31 150 6 gusting 9 32.2
2014-Sep-02 11:21 135 6 gusting 8 32.2
2014-Sep-02 11:11 150 6 gusting 7 32.2
2014-Sep-02 11:01 165 5 gusting 7 32.2
2014-Sep-02 10:51 165 4 gusting 6 31.7
2014-Sep-02 10:31 180 4 gusting 5 31.7
2014-Sep-02 10:11 150 4 gusting 7 31.1
2014-Sep-02 09:41 180 5 gusting 6 31.7
2014-Sep-02 09:31 150 2 gusting 5 31.1
2014-Sep-02 08:41 150 3 gusting 3 30.6
2014-Sep-02 08:31 165 1 gusting 2 30.0
2014-Sep-02 08:21 180 1 gusting 2 29.4
2014-Sep-02 07:51 210 27.8
2014-Sep-02 07:41 165 26.7
2014-Sep-02 07:11 180 23.9
2014-Sep-02 07:01 165 22.8
2014-Sep-02 06:51 135 21.7
2014-Sep-02 06:31 135 21.7
2014-Sep-02 06:21 105 21.1
2014-Sep-02 06:11 090 21.1
2014-Sep-02 06:01 180 21.1
2014-Sep-02 05:51 165 21.1
2014-Sep-02 05:41 135 21.7
2014-Sep-02 05:31 120 21.7
2014-Sep-02 05:21 135 21.7
2014-Sep-02 05:11 135 21.7
2014-Sep-02 05:01 105 0 gusting 1 21.7
2014-Sep-02 04:51 090 21.7
2014-Sep-02 04:41 090 21.7
2014-Sep-02 04:31 135 21.7
2014-Sep-02 03:31 105 22.2
2014-Sep-02 03:21 090 22.2
2014-Sep-02 03:11 075 22.2
2014-Sep-02 03:01 135 22.2
2014-Sep-02 02:51 150 22.2
2014-Sep-02 02:41 120 22.2
2014-Sep-02 02:31 22.8
2014-Sep-02 02:21 345 22.8
2014-Sep-02 02:11 300 22.8
2014-Sep-02 01:21 120 23.3
2014-Sep-02 01:01 090 23.3
2014-Sep-02 00:51 045 23.9
2014-Sep-02 00:21 060 23.9
2014-Sep-02 00:11 090 23.9
2014-Sep-02 00:01 030 23.9
2014-Sep-01 23:31 330 23.9
2014-Sep-01 23:21 322 23.9
2014-Sep-01 23:11 322 23.9
2014-Sep-01 23:01 330 24.4
2014-Sep-01 22:41 210 24.4
2014-Sep-01 22:31 210 1 gusting 3 24.4
2014-Sep-01 22:21 180 24.4
2014-Sep-01 22:01 202 1 gusting 3 24.4
2014-Sep-01 21:51 187 1 gusting 2 24.4
2014-Sep-01 21:41 180 2 gusting 3 24.4
2014-Sep-01 21:21 210 1 gusting 3 24.4
2014-Sep-01 20:51 195 3 gusting 5 24.4
2014-Sep-01 20:41 210 3 gusting 4 24.4
2014-Sep-01 20:31 225 2 gusting 4 24.4
2014-Sep-01 20:21 195 3 gusting 4 25.0
2014-Sep-01 20:11 180 1 gusting 2 25.0
2014-Sep-01 20:01 180 3 gusting 6 25.0
2014-Sep-01 19:51 210 3 gusting 4 25.0
2014-Sep-01 19:41 195 1 gusting 3 25.0
2014-Sep-01 19:31 180 3 gusting 3 25.0
2014-Sep-01 19:21 180 2 gusting 3 25.0
2014-Sep-01 19:11 180 2 gusting 3 25.0
2014-Sep-01 19:01 180 1 gusting 3 25.0
2014-Sep-01 18:51 180 1 gusting 2 25.6
2014-Sep-01 18:41 247 1 gusting 1 25.6
2014-Sep-01 18:11 157 3 gusting 6 26.7
2014-Sep-01 18:01 127 3 gusting 6 26.7
2014-Sep-01 17:41 165 4 gusting 6 27.2
2014-Sep-01 17:21 165 3 gusting 5 27.8
2014-Sep-01 17:01 127 6 gusting 7 28.9
2014-Sep-01 16:51 150 3 gusting 3 28.9
2014-Sep-01 16:31 195 6 gusting 6 30.0
2014-Sep-01 16:11 210 4 gusting 6 30.6
2014-Sep-01 16:01 225 6 gusting 7 30.6
2014-Sep-01 15:21 105 4 gusting 6 31.7
2014-Sep-01 15:11 120 4 gusting 6 31.7
2014-Sep-01 15:01 180 5 gusting 6 31.7
2014-Sep-01 14:51 180 5 gusting 6 31.7
2014-Sep-01 14:41 165 6 gusting 9 31.7
2014-Sep-01 14:31 180 6 gusting 9 31.7
2014-Sep-01 14:21 195 8 gusting 11 31.7
2014-Sep-01 14:11 210 7 gusting 11 31.7
2014-Sep-01 14:01 180 5 gusting 9 31.7
2014-Sep-01 13:51 180 9 gusting 11 32.2
2014-Sep-01 13:31 150 5 gusting 6 32.2
2014-Sep-01 13:21 157 7 gusting 11 32.2
2014-Sep-01 13:01 135 6 gusting 8 32.2
2014-Sep-01 12:51 135 4 gusting 6 31.7
2014-Sep-01 12:21 112 4 gusting 6 32.2
2014-Sep-01 12:11 090 3 gusting 5 32.2
2014-Sep-01 12:01 165 3 gusting 6 31.7
2014-Sep-01 11:51 150 3 gusting 4 31.7
2014-Sep-01 11:11 135 3 gusting 7 31.1
2014-Sep-01 11:01 165 4 gusting 6 31.1
2014-Sep-01 10:51 187 6 gusting 8 31.1
2014-Sep-01 10:41 195 4 gusting 6 31.1
2014-Sep-01 10:31 135 4 gusting 6 31.7
2014-Sep-01 10:21 120 2 gusting 5 31.1
2014-Sep-01 10:01 135 4 gusting 6 30.6
2014-Sep-01 09:51 120 3 gusting 6 30.6
2014-Sep-01 09:41 135 4 gusting 6 31.1
2014-Sep-01 09:31 150 2 gusting 3 31.1
2014-Sep-01 09:21 210 1 gusting 3 31.1
2014-Sep-01 08:51 165 1 gusting 3 30.0
2014-Sep-01 08:21 165 1 gusting 1 27.8
2014-Sep-01 08:11 180 1 gusting 1 27.2
2014-Sep-01 08:01 195 27.8
2014-Sep-01 07:51 180 27.8
2014-Sep-01 07:41 165 26.7
2014-Sep-01 07:31 135 25.6
2014-Sep-01 07:21 135 23.9
2014-Sep-01 07:11 135 22.8
2014-Sep-01 07:01 135 21.7
2014-Sep-01 06:51 135 20.6
2014-Sep-01 06:41 135 20.6
2014-Sep-01 06:31 120 20.0
2014-Sep-01 06:11 090 20.0
2014-Sep-01 05:41 090 20.0
2014-Sep-01 05:21 105 0 gusting 1 19.4
2014-Sep-01 05:11 105 19.4
2014-Sep-01 05:01 120 0 gusting 1 20.0
2014-Sep-01 04:51 255 20.0
2014-Sep-01 03:51 060 20.0
2014-Sep-01 03:41 075 20.0
2014-Sep-01 03:31 135 20.0
2014-Sep-01 03:21 135 20.6
2014-Sep-01 02:41 090 20.6
2014-Sep-01 02:31 105 20.6
2014-Sep-01 02:21 120 0 gusting 1 20.6
2014-Sep-01 02:11 180 20.6
2014-Sep-01 02:01 150 20.6
2014-Sep-01 01:41 165 20.6
2014-Sep-01 01:01 270 21.1
2014-Sep-01 00:31 135 21.7
2014-Sep-01 00:21 075 21.7
2014-Sep-01 00:11 045 21.7
2014-Sep-01 00:01 045 21.7
2014-Aug-31 23:41 165 21.7
2014-Aug-31 23:31 120 21.7
2014-Aug-31 23:11 090 21.7
2014-Aug-31 23:01 165 21.7
2014-Aug-31 22:51 240 22.2
2014-Aug-31 22:41 225 22.2
2014-Aug-31 22:21 195 22.2
2014-Aug-31 22:11 180 22.2
2014-Aug-31 21:51 195 22.8
2014-Aug-31 21:31 180 22.8
2014-Aug-31 21:01 210 0 gusting 1 23.3